Wind_Speed
16 15 15 15 15 14 13 13 15 17 18 19 20 22 23 24 25 26 27 28 29 30 31 32 33 33 33 33 33 34 35 36 37 38 39 40 40 40 40 40 39 38
17 17 18 18 18 17 16 15 16 18 19 20 22 23 24 25 27 27 28 30 31 32 33 34 35 34 34 33 33 35 36 37 39 40 40 41 41 41 42 42 41 41
18 19 19 20 20 20 20 18 18 19 20 21 23 24 26 27 28 29 30 32 33 33 34 36 36 35 34 34 35 37 38 39 40 41 42 42 42 43 43 43 44 44
21 21 20 21 22 22 22 21 20 21 22 23 24 26 27 28 29 30 31 33 34 35 36 37 37 36 36 36 38 39 40 41 41 42 43 43 43 44 45 45 47 47
23 23 22 22 23 24 24 24 23 24 24 24 25 27 28 29 30 31 32 34 36 36 37 37 38 38 38 39 40 41 41 42 43 44 44 45 45 46 48 48 48 47
26 26 25 25 25 26 26 26 27 27 27 27 28 29 30 31 32 32 33 35 37 38 38 38 39 39 40 40 42 43 43 44 45 45 46 46 47 49 50 50 49 49
28 29 29 28 28 28 29 29 30 31 31 31 30 31 32 33 34 34 35 36 38 39 40 40 39 40 41 42 43 44 45 46 46 47 47 47 48 51 52 51 51 52
30 31 31 30 31 31 31 32 33 34 34 33 33 33 34 35 35 36 36 38 39 40 42 42 41 41 42 44 45 46 47 48 48 49 50 49 49 52 53 53 53 54
32 32 32 32 32 33 33 34 35 36 36 35 35 35 36 36 37 37 37 39 41 42 43 43 41 42 44 46 47 48 49 49 50 51 52 51 50 52 54 54 55 56
33 33 33 34 34 34 35 35 37 37 37 36 37 37 38 38 38 38 38 40 41 43 43 43 42 43 46 47 48 50 51 51 52 53 54 53 52 53 55 56 56 57
35 35 36 36 36 37 37 37 38 38 38 38 38 39 39 40 40 40 40 41 42 43 43 44 43 44 47 48 50 51 52 53 54 55 55 54 53 54 57 58 58 58
37 38 38 38 38 39 39 39 40 40 40 40 40 41 41 42 42 42 42 42 42 43 44 45 45 46 48 49 50 52 54 55 55 56 57 56 55 56 58 59 59 59
40 40 40 40 41 41 41 42 42 42 41 41 42 43 44 44 44 44 43 43 44 44 46 47 48 48 49 49 50 52 54 56 57 58 58 58 58 59 59 59 59 59
42 42 43 43 43 44 44 45 44 44 44 43 43 44 46 46 45 45 45 45 45 46 48 49 50 50 51 51 51 53 55 57 58 60 61 60 60 60 59 59 59 60
45 45 45 46 46 46 46 47 46 46 45 44 45 47 48 47 46 46 46 46 47 49 51 52 52 53 53 53 53 54 56 57 60 62 63 63 61 60 59 60 60 61
47 47 47 48 48 49 49 48 47 46 46 46 48 50 49 49 48 48 49 50 51 52 54 54 55 55 55 55 56 56 57 59 61 63 65 64 63 61 60 61 62 63
49 49 49 50 50 50 50 50 48 48 48 49 51 53 52 52 51 52 53 54 54 55 56 57 57 57 58 58 58 59 60 61 62 64 66 65 63 63 63 64 65 65
51 51 52 52 53 52 52 51 50 50 51 53 54 55 56 55 54 56 57 57 57 58 58 59 60 60 60 60 61 61 61 62 64 66 66 64 63 64 66 67 67 67
54 53 54 54 55 55 54 53 52 53 54 56 58 58 58 58 58 59 59 59 60 61 61 61 62 62 62 63 63 63 62 63 66 66 65 65 65 66 68 69 69 69
56 56 56 57 57 57 56 55 55 56 58 59 61 62 62 62 62 62 62 62 63 64 64 64 64 64 65 65 65 64 63 63 65 67 66 65 66 68 71 71 70 70
59 59 59 60 60 59 58 58 58 60 62 63 65 65 65 65 65 65 65 65 66 66 66 66 66 66 67 67 66 66 64 63 66 66 64 64 69 72 71 68 67 67
63 63 63 63 62 61 61 61 62 64 66 67 68 68 67 67 67 68 68 69 69 68 68 68 68 68 69 68 68 66 65 64 65 64 63 67 70 66 60 59 63 66
67 67 67 66 65 65 64 64 66 68 69 70 70 70 69 69 70 70 71 71 71 70 70 70 70 70 70 70 69 67 65 65 64 63 63 63 60 54 52 56 62 66
72 71 70 69 68 68 67 67 69 71 72 73 73 72 72 72 72 72 73 73 73 73 73 72 71 71 71 71 70 68 65 65 64 62 60 56 53 55 57 57 61 66
76 75 73 72 71 71 71 71 72 74 75 75 75 75 75 75 74 74 75 76 76 76 75 74 73 72 73 73 71 68 66 66 63 62 62 58 55 56 57 57 62 66
79 78 77 75 74 74 74 74 76 77 77 77 77 77 77 77 77 76 77 79 80 79 78 76 74 74 74 74 71 68 67 66 65 65 65 60 56 58 60 61 62 61
Wind_Direction
281 287 289 292 295 298 303 308 312 315 319 322 323 324 325 327 329 331 333 334 335 337 338 338 338 339 340 342 344 345 344 344 343 343 343 344 344 344 343 343 343 343
277 283 288 293 295 296 298 302 306 310 314 318 320 321 322 324 326 328 330 332 333 335 336 336 335 335 336 338 340 341 342 342 342 341 342 342 342 342 341 340 340 340
278 282 287 292 295 296 297 299 302 306 310 314 316 317 318 320 323 325 328 330 332 332 333 334 334 334 335 336 336 335 336 337 338 339 339 340 340 339 339 338 338 338
280 284 288 291 294 296 297 298 300 303 306 310 312 314 315 317 320 322 325 328 330 330 330 332 334 334 334 334 333 331 332 333 334 335 336 337 338 337 336 336 337 339
278 283 286 288 290 293 295 297 299 301 305 307 309 311 313 315 317 319 323 325 327 327 327 328 331 332 332 331 329 329 330 331 332 332 333 334 335 335 334 335 337 339
275 280 283 284 286 289 292 295 297 300 303 305 307 309 311 312 314 317 320 322 323 324 324 325 327 329 330 328 327 327 328 330 331 332 332 332 333 334 333 333 336 338
273 278 280 281 283 285 287 291 294 297 301 302 304 307 309 311 313 316 318 319 320 321 321 322 324 326 327 327 326 326 327 329 330 331 331 330 332 333 332 333 335 337
270 274 277 279 281 282 284 287 290 293 297 300 303 305 307 310 312 314 316 317 318 318 318 319 320 323 326 325 324 324 326 327 329 330 330 329 330 332 332 332 334 336
267 270 274 276 278 280 282 284 287 290 294 298 301 303 306 308 309 311 314 315 316 316 316 316 317 320 323 322 322 323 324 327 328 329 329 327 328 331 332 331 332 334
266 269 272 274 276 279 281 283 285 288 292 296 299 301 303 304 306 309 311 312 313 313 313 314 314 316 320 321 320 321 323 325 327 328 328 327 327 330 331 330 330 332
266 268 271 273 276 278 281 283 285 288 291 294 296 298 300 302 304 306 307 308 309 309 310 311 312 314 317 318 319 320 322 324 325 325 326 326 325 326 329 329 329 330
265 268 271 273 276 278 280 283 285 287 289 291 294 295 297 300 302 303 304 304 305 306 307 308 310 312 315 316 318 319 320 322 322 322 323 324 324 325 326 327 328 329
266 269 272 273 276 278 281 282 284 286 288 290 292 293 295 298 299 300 300 301 302 303 303 305 308 310 312 314 315 317 318 319 319 320 321 322 324 325 325 326 327 328
268 271 273 275 277 279 281 282 284 286 287 289 290 292 294 296 296 296 297 298 299 300 302 303 306 308 310 312 314 315 316 316 317 318 320 322 323 324 325 325 327 327
269 271 273 274 276 278 280 282 283 285 287 288 289 291 293 294 293 293 295 297 297 299 301 302 304 306 308 310 312 314 314 315 316 318 319 321 322 322 323 324 325 326
268 269 270 272 274 276 279 281 282 284 286 287 287 289 291 291 290 290 293 295 296 298 300 301 302 304 307 310 311 312 313 314 316 317 319 320 320 321 322 324 324 325
267 267 268 270 273 275 278 279 281 284 286 286 286 287 287 288 289 289 291 294 296 297 299 301 301 303 306 309 310 311 313 315 316 317 318 318 319 320 321 323 323 324
267 267 269 271 273 275 277 279 281 283 284 284 285 285 285 287 288 289 291 294 296 297 299 300 300 302 305 307 308 310 313 314 316 317 317 317 318 319 321 322 322 324
267 268 269 271 273 275 276 278 280 281 282 283 283 284 285 285 286 289 292 294 295 296 298 299 300 301 303 306 308 310 312 314 315 316 316 316 316 319 321 321 322 324
267 268 269 270 272 274 276 277 278 280 281 282 282 283 285 285 287 290 292 294 294 296 297 298 299 300 302 305 307 309 312 313 313 314 315 315 317 320 320 320 322 324
266 267 268 269 270 272 275 276 277 278 279 280 282 283 285 286 288 290 292 293 294 295 296 296 297 299 301 304 306 308 310 311 312 313 314 315 317 319 320 322 324 324
264 265 266 267 269 271 273 275 276 277 278 279 281 283 284 286 287 289 291 292 293 294 294 295 297 298 300 303 304 307 309 310 311 312 313 316 319 321 326 327 323 320
263 264 265 266 268 270 272 274 275 276 277 278 280 282 284 285 287 288 290 291 291 292 293 294 296 297 299 301 303 306 308 309 310 311 315 320 321 321 323 318 311 311
262 263 264 266 268 270 272 273 275 276 277 278 280 282 283 285 286 287 288 289 290 291 292 293 294 296 298 300 302 305 307 308 309 310 314 317 314 311 312 309 305 308
262 264 265 266 268 269 271 273 274 275 276 277 279 281 282 284 285 287 288 288 289 290 291 292 293 295 297 299 301 304 305 306 307 308 311 312 308 306 307 305 305 309
264 264 265 266 267 268 269 271 272 273 275 277 278 279 281 283 285 287 287 288 288 289 290 292 293 295 296 298 300 302 302 303 304 305 307 308 303 302 302 302 304 308
Height
10977 10977 10977 10977 10977 10977 10977 10977 10976 10976 10975 10975 10975 10974 10973 10972 10971 10971 10970 10969 10968 10967 10965 10964 10962 10960 10958 10957 10955 10952 10949 10947 10944 10942 10939 10936 10934 10932 10930 10928 10926 10924
10975 10975 10976 10976 10975 10975 10975 10975 10974 10973 10973 10973 10972 10971 10971 10970 10969 10968 10967 10967 10966 10965 10963 10962 10960 10958 10956 10954 10952 10949 10947 10944 10942 10939 10936 10934 10932 10930 10927 10925 10923 10921
10973 10973 10973 10974 10973 10973 10973 10973 10972 10971 10971 10970 10970 10969 10968 10967 10966 10965 10965 10964 10963 10962 10960 10959 10957 10956 10954 10952 10949 10946 10944 10942 10939 10936 10934 10932 10930 10927 10925 10923 10920 10918
10970 10971 10971 10971 10971 10971 10970 10970 10970 10969 10968 10968 10967 10966 10965 10964 10964 10963 10962 10961 10959 10958 10957 10956 10954 10953 10951 10948 10946 10943 10941 10939 10937 10934 10932 10929 10927 10925 10923 10920 10918 10915
10968 10968 10968 10969 10968 10968 10968 10967 10967 10966 10965 10965 10964 10963 10962 10961 10961 10960 10959 10958 10956 10955 10953 10952 10951 10949 10947 10945 10942 10940 10938 10937 10934 10932 10929 10926 10924 10922 10920 10917 10915 10912
10965 10965 10965 10966 10965 10965 10965 10964 10964 10963 10962 10962 10961 10960 10959 10958 10957 10957 10956 10955 10953 10952 10950 10949 10948 10946 10944 10941 10939 10936 10935 10933 10931 10929 10926 10923 10921 10918 10916 10913 10911 10908
10962 10962 10962 10962 10962 10962 10962 10961 10960 10960 10959 10958 10958 10957 10956 10955 10954 10953 10952 10951 10949 10948 10946 10945 10944 10942 10940 10937 10934 10932 10931 10929 10928 10926 10923 10920 10918 10915 10911 10908 10906 10903
10959 10959 10959 10959 10959 10958 10958 10958 10957 10956 10956 10955 10954 10954 10953 10952 10951 10950 10949 10947 10945 10943 10942 10940 10939 10938 10936 10933 10931 10929 10927 10925 10924 10922 10919 10916 10914 10911 10907 10904 10901 10899
10955 10955 10955 10955 10955 10955 10955 10955 10954 10953 10952 10951 10951 10950 10950 10949 10948 10946 10945 10943 10941 10939 10937 10936 10935 10934 10932 10930 10927 10925 10923 10922 10920 10918 10915 10913 10910 10908 10903 10900 10897 10895
10951 10951 10951 10951 10951 10951 10951 10951 10950 10949 10948 10948 10947 10946 10946 10945 10944 10943 10942 10940 10938 10935 10934 10932 10931 10930 10928 10926 10923 10921 10919 10918 10916 10913 10911 10908 10906 10904 10900 10897 10894 10891
10947 10947 10947 10947 10947 10947 10947 10947 10946 10945 10944 10944 10943 10942 10941 10941 10940 10939 10937 10936 10934 10932 10930 10929 10928 10927 10925 10922 10919 10917 10915 10914 10912 10909 10907 10905 10903 10900 10897 10893 10890 10888
10943 10943 10943 10943 10943 10942 10942 10942 10941 10941 10940 10939 10939 10938 10937 10936 10935 10934 10933 10931 10929 10928 10926 10925 10924 10924 10922 10920 10917 10913 10911 10910 10908 10905 10904 10902 10900 10896 10893 10889 10885 10883
10939 10939 10938 10938 10938 10937 10937 10937 10936 10936 10935 10935 10934 10933 10932 10931 10930 10929 10928 10926 10925 10923 10922 10920 10920 10920 10919 10917 10915 10912 10909 10906 10904 10901 10900 10898 10896 10892 10888 10885 10881 10878
10934 10934 10933 10933 10932 10932 10931 10931 10931 10931 10930 10930 10929 10928 10927 10926 10925 10924 10923 10921 10920 10919 10917 10916 10916 10915 10914 10914 10913 10910 10907 10903 10900 10897 10895 10894 10892 10888 10884 10880 10877 10873
10929 10929 10928 10928 10927 10926 10926 10925 10926 10925 10925 10925 10924 10922 10922 10921 10920 10919 10918 10917 10916 10914 10913 10912 10911 10910 10910 10909 10909 10907 10904 10900 10896 10892 10890 10889 10887 10884 10880 10876 10872 10869
10924 10923 10923 10922 10921 10920 10920 10920 10920 10920 10920 10919 10918 10916 10916 10915 10915 10914 10913 10912 10911 10909 10908 10907 10906 10905 10905 10904 10903 10902 10899 10895 10891 10887 10884 10882 10881 10879 10876 10872 10868 10864
10918 10917 10917 10917 10916 10915 10914 10914 10915 10915 10915 10914 10912 10910 10910 10910 10909 10908 10907 10906 10906 10904 10902 10901 10900 10899 10899 10899 10897 10896 10894 10890 10886 10883 10879 10877 10875 10873 10870 10867 10863 10859
10912 10912 10911 10911 10910 10909 10908 10909 10910 10910 10909 10907 10905 10904 10903 10904 10903 10902 10901 10901 10900 10898 10897 10896 10894 10893 10893 10892 10891 10890 10889 10885 10881 10878 10874 10871 10869 10867 10864 10861 10857 10853
10906 10906 10906 10904 10903 10903 10903 10904 10904 10904 10902 10900 10898 10897 10897 10897 10897 10896 10896 10896 10894 10892 10891 10890 10888 10887 10886 10886 10884 10884 10884 10881 10876 10873 10870 10867 10864 10861 10858 10855 10851 10847
10900 10900 10899 10897 10897 10897 10897 10898 10898 10897 10896 10894 10891 10890 10891 10891 10890 10890 10890 10889 10887 10886 10885 10883 10881 10880 10880 10879 10879 10879 10879 10876 10871 10868 10866 10862 10859 10856 10853 10849 10847 10843
10893 10893 10892 10890 10890 10891 10892 10892 10892 10891 10889 10887 10885 10884 10885 10884 10884 10883 10883 10882 10881 10880 10879 10876 10875 10874 10873 10873 10873 10873 10873 10872 10867 10864 10862 10859 10855 10852 10848 10845 10843 10839
10885 10885 10884 10883 10884 10885 10886 10886 10885 10883 10881 10880 10879 10879 10879 10879 10877 10876 10875 10874 10874 10873 10872 10870 10869 10868 10867 10867 10867 10867 10867 10865 10863 10861 10859 10856 10852 10849 10849 10849 10844 10838
10877 10876 10877 10877 10878 10878 10880 10880 10878 10876 10874 10873 10872 10873 10873 10873 10871 10870 10869 10868 10867 10867 10865 10864 10862 10861 10860 10860 10860 10861 10861 10859 10857 10856 10857 10856 10850 10848 10852 10855 10849 10840
10868 10868 10870 10871 10872 10872 10873 10873 10871 10869 10867 10866 10866 10867 10867 10866 10865 10864 10863 10861 10860 10860 10859 10858 10857 10855 10854 10853 10854 10854 10854 10853 10851 10851 10856 10859 10852 10847 10848 10847 10842 10838
10860 10861 10863 10865 10867 10866 10866 10865 10864 10861 10860 10860 10860 10860 10858 10858 10858 10858 10857 10854 10853 10852 10852 10852 10851 10850 10847 10846 10847 10848 10846 10846 10844 10844 10850 10855 10850 10845 10842 10838 10834 10831
10852 10854 10856 10858 10859 10859 10858 10857 10856 10855 10854 10854 10853 10852 10851 10851 10851 10851 10850 10847 10845 10845 10845 10845 10845 10843 10840 10839 10840 10840 10839 10839 10838 10837 10842 10845 10841 10837 10835 10831 10828 10824